EW0205 Weather Reports


time (UTC)temp
C
wind
direction
speed
KPH
gust
KPH
rain 1hr
cm
rain 24hr
cm
rain mn
cm
humidity
%
barometer
mb
20260504044551 8 215 3.2 12.9 0.00 0.03 0.00 60 1005.0
20260504043108 8 232 8.0 14.5 0.00 0.03 0.00 58 1005.1
20260504041542 8 231 4.8 11.3 0.00 0.03 0.00 57 1005.3
20260504040042 8 246 3.2 12.9 0.00 0.03 0.00 57 1005.2
20260504034546 7 238 6.4 11.3 0.00 0.03 0.03 56 1005.2
20260504033036 7 207 3.2 11.3 0.00 0.03 0.03 56 1005.2
20260504031547 7 200 1.6 8.0 0.00 0.03 0.03 56 1005.3
20260504030042 7 360 4.8 12.9 0.00 0.03 0.03 57 1005.4
20260504024535 7 194 1.6 6.4 0.00 0.03 0.03 58 1005.5
20260504023032 7 204 0.0 0.0 0.00 0.03 0.03 59 1005.6
20260504021540 7 204 1.6 4.8 0.00 0.03 0.03 57 1005.8
20260504020037 8 205 1.6 3.2 0.00 0.03 0.03 53 1005.8
20260504014530 8 205 1.6 3.2 0.00 0.03 0.03 52 1005.9
20260504013035 8 202 0.0 6.4 0.00 0.03 0.03 51 1006.0
20260504011530 8 212 1.6 8.0 0.00 0.03 0.03 51 1006.0
20260504010030 8 198 1.6 4.8 0.00 0.03 0.03 54 1006.1
20260504004540 8 211 0.0 0.0 0.00 0.03 0.03 53 1005.9
20260504003029 9 211 0.0 0.0 0.00 0.03 0.03 49 1005.7
20260504001534 10 213 0.0 1.6 0.00 0.03 0.03 48 1005.6
20260504000028 10 223 4.8 8.0 0.00 0.03 0.03 47 1005.6
20260503234529 10 227 4.8 11.3 0.00 0.03 0.03 46 1005.6
20260503233026 11 227 4.8 14.5 0.00 0.03 0.03 45 1005.7
20260503231526 11 241 6.4 16.1 0.00 0.03 0.03 43 1005.6
20260503230036 11 254 6.4 22.5 0.00 0.03 0.03 43 1005.5
20260503224525 11 253 9.7 22.5 0.00 0.03 0.03 42 1005.5
20260503223025 11 236 3.2 16.1 0.00 0.03 0.03 44 1005.5
20260503221526 12 265 9.7 19.3 0.00 0.03 0.03 42 1005.6
20260503220032 12 201 12.9 27.4 0.00 0.03 0.03 43 1005.6
20260503214532 12 253 9.7 27.4 0.00 0.03 0.03 44 1005.6
20260503213030 11 360 11.3 19.3 0.00 0.03 0.03 43 1005.5
20260503211521 11 265 19.3 29.0 0.00 0.03 0.03 42 1005.6
20260503210021 12 302 9.7 25.7 0.00 0.03 0.03 43 1005.5
20260503204525 11 360 14.5 33.8 0.00 0.03 0.03 42 1005.6
20260503203016 11 360 12.9 25.7 0.00 0.03 0.03 45 1005.7
20260503201515 11 360 11.3 30.6 0.00 0.03 0.03 42 1005.7
20260503200012 11 360 14.5 32.2 0.00 0.03 0.03 47 1006.0
20260503194509 11 248 16.1 25.7 0.00 0.03 0.03 46 1006.1
20260503193008 11 234 11.3 24.1 0.00 0.03 0.03 47 1006.4
20260503191504 10 360 12.9 22.5 0.00 0.03 0.03 48 1006.5
20260503190006 10 360 9.7 20.9 0.00 0.03 0.03 49 1006.7
20260503184600 10 275 9.7 16.1 0.00 0.20 0.03 52 1006.8
20260503183104 9 360 9.7 24.1 0.00 0.20 0.03 52 1007.1
20260503181607 9 360 9.7 19.3 0.00 0.20 0.03 52 1007.1
20260503180055 10 281 3.2 16.1 0.00 0.20 0.03 54 1007.1
20260503174601 9 360 11.3 19.3 0.00 0.23 0.03 54 1007.4
20260503173052 9 360 6.4 20.9 0.00 0.23 0.03 60 1007.4
20260503171550 8 292 9.7 24.1 0.00 0.23 0.03 55 1007.6
20260503081511 4 271 6.4 11.3 0.00 0.43 0.00 90 1009.9